Showing default

QIANFAN-70, 62800

Orbit data source: Space-Track

QIANFAN-70, 62800 is a Chinese payload satellite in LEO that was launched on Thu, 23 Jan 2025 UTC via a CHANG ZHENG 6A launch vehicle from the Taiyaun Space Center, China (TSC). Payload-class satellites include a variety of spacecraft equipped with specific instruments for various scientific and technological missions. These include communications satellites like Starlink; space stations such as the ISS; scientific satellites like the Hubble; Earth observation satellites from companies like Planet Labs, Umbra, and HawkEye 360; GPS; miniature CubeSats for education and research; and military/defense satellites.

Loading next visibility...
Identifier
62800, 2025-016R
Orbit
LEO
Country
Flag of CNCN / PRC
Related business
Manufacturer
SECM
Mission
Operational Commercial Communications
Bus & Motor
QIANFAN, Unknown motor
Mass
267 kg wet, ~267 kg dry
Launch date (UTC)
2025-01-23 (2 years ago)
Launch vehicle
CHANG ZHENG 6A
Launch site
Taiyaun Space Center, China (TSC)
Object type
Payload
Rocket body
Debris
Shape & HBR
Box + 1 Pan, 5.0 m
Radar Cross Section
13.200 m², Large (>1 m²)

Expand to show TLE details & history
Last TLE update: 8 hours ago

TLE from 8 hours ago
0 QIANFAN-70
1 62800U 25016R   26257.59858412  .00000053  00000-0  63729-4 0  9993
2 62800  88.9665  74.4580 0013559 257.0645 102.8992 13.51023515 84481
Epoch: 2026-09-14T14:21Z
TLE epoch observation values (Epoch: 2026-09-14T14:21:57.667Z)
Latitude
-0.00005°
Longitude
-134.60886°
Altitude
1,073.716 km
Speed
7.314 km/s
True Right ascension
04h 57m 49s
True Declination
0° 00' 00"
Sunlit
Object was in daylight at epoch
Visualization orbit readout
Latitude
Unknown
Longitude
Unknown
Altitude
Unknown
Speed
Unknown
Apparent Right ascension
Unknown
Apparent Declination
Unknown
Sunlit
N/A
Visualization observer readout
Local Sidereal Time
14:58:00
Azimuth
Unknown
Elevation
Unknown
Doppler factor
Unknown
Orbital elements
Apogee altitude
1,075.639 km
Perigee altitude
1,055.453 km
Semi-major axis
7,443.683 km
Eccentricity
0.00136
Inclination
88.9665°
RAAN
74.458°
Arg. of periapsis
257.0645°
True anomaly
103.0506°
Mean anomaly
102.8992°
Eccentric anomaly
102.9749°
Mean motion
3.37957 °/min
Orbital period
106.52 mins
BSTAR
0.000063729
Loading maneuver chart data...
Computing Atmospheric mass density...
Loading historical data...
Loading historical data...
Loading historical data...
Loading historical data...
Loading historical data...
Loading historical data...
Loading historical data...

Documentation

Showing up to 5 results
|